CW7779 Weather Reports


time (UTC)temp
C
wind
direction
speed
KPH
gust
KPH
rain 1hr
cm
rain 24hr
cm
rain mn
cm
humidity
%
barometer
mb
20260506033031 20 202 3.2 11.3 0.00 0.00 0.00 74 1017.7
20260506031531 20 239 3.2 11.3 0.00 0.00 0.00 73 1017.7
20260506030035 20 236 0.0 16.1 0.00 0.00 0.00 74 1017.7
20260506024542 20 223 1.6 11.3 0.00 0.00 0.00 74 1017.7
20260506023031 20 211 3.2 11.3 0.00 0.00 0.00 74 1017.7
20260506021529 20 210 3.2 9.7 0.00 0.00 0.00 73 1017.7
20260506020029 20 176 6.4 12.9 0.00 0.00 0.00 73 1017.7
20260506014529 20 196 4.8 16.1 0.00 0.00 0.00 72 1017.7
20260506013028 20 214 6.4 14.5 0.00 0.00 0.00 73 1017.7
20260506011526 20 221 4.8 11.3 0.00 0.00 0.00 74 1017.7
20260506010032 20 198 4.8 12.9 0.00 0.00 0.00 74 1017.6
20260506004524 20 199 4.8 11.3 0.00 0.00 0.00 74 1017.4
20260506003024 20 207 4.8 12.9 0.00 0.00 0.00 73 1017.3
20260506001532 20 228 4.8 11.3 0.00 0.00 0.00 71 1017.3
20260506000022 21 213 3.2 14.5 0.00 0.00 0.00 69 1017.4
20260505234528 21 221 4.8 12.9 0.00 0.00 0.00 68 1017.3
20260505233022 21 186 3.2 17.7 0.00 0.00 0.00 67 1017.6
20260505231522 21 234 4.8 14.5 0.00 0.00 0.00 66 1017.6
20260505230043 22 220 6.4 17.7 0.00 0.00 0.00 67 1017.6
20260505224521 22 173 8.0 19.3 0.00 0.00 0.00 65 1017.7
20260505223020 22 217 9.7 19.3 0.00 0.00 0.00 65 1017.6
20260505221520 22 203 11.3 24.1 0.00 0.00 0.00 64 1017.6
20260505220029 22 229 9.7 25.7 0.00 0.00 0.00 64 1017.7
20260505214519 23 205 8.0 25.7 0.00 0.00 0.00 63 1017.3
20260505213022 22 198 11.3 22.5 0.00 0.00 0.00 62 1017.3
20260505211518 23 161 9.7 19.3 0.00 0.00 0.00 61 1017.2
20260505210017 23 185 9.7 19.3 0.00 0.00 0.00 62 1017.5
20260505204516 23 214 11.3 22.5 0.00 0.00 0.00 61 1017.7
20260505203019 23 182 11.3 25.7 0.00 0.00 0.00 61 1017.7
20260505201516 22 236 12.9 22.5 0.00 0.00 0.00 62 1017.9
20260505200015 23 256 11.3 24.1 0.00 0.00 0.00 62 1018.0
20260505194515 23 222 12.9 29.0 0.00 0.00 0.00 60 1018.2
20260505193014 23 226 9.7 22.5 0.00 0.00 0.00 60 1018.4
20260505191515 24 180 6.4 19.3 0.00 0.00 0.00 61 1018.8
20260505190013 25 176 4.8 14.5 0.00 0.00 0.00 61 1018.8
20260505184512 25 134 6.4 14.5 0.00 0.00 0.00 58 1018.8
20260505183012 24 200 4.8 16.1 0.00 0.00 0.00 58 1018.7
20260505181511 24 153 4.8 17.7 0.00 0.00 0.00 56 1018.7
20260505180025 24 219 6.4 25.7 0.00 0.00 0.00 57 1018.7
20260505174509 25 267 8.0 22.5 0.00 0.00 0.00 54 1018.8
20260505173008 24 237 8.0 19.3 0.00 0.00 0.00 56 1018.8
20260505171507 24 205 8.0 19.3 0.00 0.00 0.00 56 1018.8
20260505170005 23 208 6.4 20.9 0.00 0.00 0.00 57 1018.8
20260505164505 23 205 9.7 17.7 0.00 0.00 0.00 56 1018.8
20260505163005 23 216 6.4 25.7 0.00 0.00 0.00 56 1019.2
20260505161504 23 151 4.8 22.5 0.00 0.00 0.00 56 1019.3
20260505153003 23 217 8.0 17.7 0.00 0.00 0.00 54 1019.3
20260505151558 23 225 4.8 12.9 0.00 0.00 0.00 55 1019.3
20260505124535 20 218 6.4 9.7 0.00 0.00 0.00 74 1018.7
20260505123035 18 205 3.2 9.7 0.00 0.00 0.00 83 1018.8
20260505121531 18 209 1.6 4.8 0.00 0.00 0.00 89 1018.7
20260505120030 17 209 0.0 0.0 0.00 0.00 0.00 90 1018.7
20260505114528 16 209 0.0 0.0 0.00 0.00 0.00 89 1018.4
20260505113027 16 209 0.0 0.0 0.00 0.00 0.00 89 1018.3
20260505111527 15 209 0.0 0.0 0.00 0.00 0.00 88 1018.2
20260505101541 15 209 0.0 0.0 0.00 0.00 0.00 87 1017.3
20260505100046 15 209 0.0 0.0 0.00 0.00 0.00 87 1017.2
20260505094524 15 209 0.0 0.0 0.00 0.00 0.00 87 1017.2
20260505093023 15 209 0.0 0.0 0.00 0.00 0.00 86 1017.1
20260505091519 16 209 0.0 0.0 0.00 0.00 0.00 86 1017.1
20260505090017 16 209 0.0 0.0 0.00 0.00 0.00 86 1017.0
20260505084515 16 209 0.0 0.0 0.00 0.00 0.00 86 1017.1
20260505083013 16 209 0.0 0.0 0.00 0.00 0.00 85 1017.0
20260505081512 16 209 0.0 1.6 0.00 0.00 0.00 84 1016.8
20260505080008 17 209 0.0 3.2 0.00 0.00 0.00 84 1016.7
20260505074509 17 209 0.0 3.2 0.00 0.00 0.00 83 1016.7
20260505073024 17 209 0.0 4.8 0.00 0.00 0.00 82 1016.6
20260505071504 17 208 0.0 4.8 0.00 0.00 0.00 81 1016.7
20260505070003 17 208 1.6 6.4 0.00 0.00 0.00 81 1016.7
20260505064601 17 212 1.6 4.8 0.00 0.00 0.00 79 1016.8
20260505063113 18 209 1.6 4.8 0.00 0.00 0.00 78 1016.8
20260505061557 18 210 1.6 9.7 0.00 0.00 0.00 77 1017.1
20260505060055 18 216 3.2 12.9 0.00 0.00 0.00 77 1017.2
20260505054554 18 206 3.2 11.3 0.00 0.00 0.00 76 1017.2
20260505053054 18 220 6.4 11.3 0.00 0.00 0.00 76 1017.2
20260505051552 18 231 1.6 14.5 0.00 0.00 0.00 74 1017.2
20260505041548 18 208 3.2 12.9 0.00 0.00 0.00 70 1017.5
20260505040046 18 195 4.8 17.7 0.00 0.00 0.00 70 1017.6
20260505034549 18 186 1.6 17.7 0.00 0.00 0.00 69 1017.5